Regional Weather Roundup
Issued by NWS

Home | Current Version | Previous Version | Text Only | Print | Product List | Glossary On
Versions: 1 2 3 4 5 6 7 8 9 10 11 12 13 14 15 16 17 18 19 20 21 22 23 24 25 26 27 28 29 30 31 32 33 34 35 36 37 38 39 40 41 42 43 44 45 46 47 48 49 50
000
ASUS45 KBOU 200810
RWRCO

WEATHER ROUNDUP FOR COLORADO
NATIONAL WEATHER SERVICE DENVER/BOULDER CO
100 AM MST SAT JAN 20 2018

NOTE: "FAIR" INDICATES FEW OR NO CLOUDS BELOW 12000 FEET WITH NO
SIGNIFICANT WEATHER AND/OR OBSTRUCTIONS TO VISIBILITY.

COZ001>005-013-030-031-200900-
...NORTHWEST COLORADO...

CITY           SKY/WX    TMP DP  RH WIND       PRES   REMARKS
CRAIG          FAIR      28  22  78 SE5       29.81F WCI  23
HAYDEN         CLOUDY   N/A N/A N/A E8        29.83F
MEEKER         CLOUDY    40  25  55 NE3       29.81F
RABBIT EARS PA FAIR      28  18  64 SW10G20   29.89F WCI  19
STEAMBOAT SPGS FAIR      22  18  83 CALM      29.83F
WALDEN         FAIR      28  16  59 S6        29.84F WCI  22
$$

COZ006>008-011-200900-
...WEST CENTRAL VALLEYS...

CITY           SKY/WX    TMP DP  RH WIND       PRES   REMARKS
GRAND JUNCTION FAIR      28  21  75 CALM      29.80F
MONTROSE       FAIR      53  20  27 VRB5G18   29.84F
EAGLE          FAIR      31  21  66 E12       29.86F WCI  22
RIFLE          FAIR      28  22  78 CALM      29.82F
DELTA          FAIR      45  24  43 E7        29.84S
NUCLA          FAIR      41  21  45 CALM      29.91S
$$

COZ017>023-064>068-200900-
...SOUTHWEST COLORADO...

CITY           SKY/WX    TMP DP  RH WIND       PRES   REMARKS
DURANGO        FAIR      23  16  74 E5        29.98S WCI  17
CORTEZ         FAIR      26  20  77 NE3       29.93F
PAGOSA SPRINGS FAIR      26  16  67 CALM      30.02S
TELLURIDE      FAIR      40  19  41 SE6       29.99F
WOLF CREEK PAS NOT AVBL
$$

COZ009-010-012-014-032>034-037-058>063-200900-
...CENTRAL COLORADO...

CITY           SKY/WX    TMP DP  RH WIND       PRES   REMARKS
ASPEN          FAIR      31  17  56 S6        29.87F WCI  25
BUENA VISTA    FAIR      28  13  53 W3        29.90F
COPPER MTN     NOT AVBL
BERTHOUD PASS  FAIR      25  12  58 W36G62    29.95S WCI   7
COTTONWOOD PAS   N/A     41  18  38 SE5       29.94F
GUNNISON       FAIR      18  13  80 CALM      29.96F
KREMMLING      FAIR      32  21  64 E3        29.86F
LEADVILLE      FAIR      29  11  47 SE9       29.92F WCI  20
MONARCH PASS   FAIR      25  16  68 SW24      30.11F WCI   9
SALIDA         FAIR      44  11  26 SW9       29.98S
SUNLIGHT       MOCLDY    28  18  64 SW22G35   29.96F WCI  15
WILKERSON PASS FAIR      28  10  47 SW18G25   29.99S WCI  16
$$

COZ069>075-200900-
...SAN LUIS VALLEY/SANGRE DE CRISTO MOUNTAINS...

CITY           SKY/WX    TMP DP  RH WIND       PRES   REMARKS
ALAMOSA        FAIR      30  16  56 SE9       29.97S WCI  22
DEL NORTE      FAIR      25  10  53 CALM      29.97F
LA VETA PASS   FAIR      32  18  55 S17G36      N/A  WCI  21
SAGUACHE       FAIR      19   7  58 NE3       29.98S
$$

COZ035-036-038>040-200900-
...NORTHERN COLORADO FRONT RANGE...

CITY           SKY/WX    TMP DP  RH WIND       PRES   REMARKS
DENVER INTL AP FAIR      47  15  27 SW16      29.73F
DMNS CITY PARK NOT AVBL
AURORA         MOCLDY    46  16  29 S15       29.74F
FRONT RANGE AP FAIR      48  18  30 SW13      29.75S
ERIE MUNI ARPT FAIR      28  18  67 SW6       29.79S WCI  21
BOULDER MUN AP FAIR      46  14  27 S3        29.72F
CENTENNIAL     FAIR      50  16  25 SW13      29.75S
BROOMFIELD     FAIR      45  14  29 SW6       29.75R
FORT COLLINS   FAIR      34  22  61 VRB3      29.74S
LONGMONT       FAIR      41  17  39 NE8       29.74S
$$

COZ041-046-047-076>085-087-088-200900-
...PIKES PEAK/PALMER DIVIDE AND SOUTHERN FOOTHILLS...

CITY           SKY/WX    TMP DP  RH WIND       PRES   REMARKS
COLO. SPRINGS  FAIR      49  14  24 W10       29.80F
A. F. ACADEMY  FAIR      32  12  43 N10       29.81F WCI  23
SCHRIEVER AFB  FAIR      51  10  19 NW12      29.81F
CHEYENNE MTN   FAIR      53  11  18 W13G21    29.79F
ELLICOTT         N/A    N/A N/A N/A CALM      29.79F
FALCON         FAIR      44  10  25 W13       29.84S
FORT CARSON    FAIR      51  14  22 NW7       29.77F
LIMON          FAIR      29  17  61 VRB3      29.74F
MONUMENT HILL  FAIR      43  12  28 SW7       29.84S
CANON CITY     FAIR      45  19  36 W10       29.79S
WALSENBURG     FAIR      50  19  29 W16       29.84F
TRINIDAD       FAIR      47  18  31 W17       29.83F
$$

COZ042>045-048>051-090-091-200900-
...NORTHEAST COLORADO...

CITY           SKY/WX    TMP DP  RH WIND       PRES   REMARKS
GREELEY ARPT   NOT AVBL
AKRON          FAIR      43  20  39 S13       29.73F
BURLINGTON     FAIR      40  17  39 S5        29.73S
WRAY           FAIR      30  25  80 CALM      29.75S
YUMA           FAIR      27  16  63 NW3       29.74S
STERLING       FAIR      30  23  74 N5        29.73S WCI  25
HOLYOKE        FAIR      32  28  86 CALM      29.75S
FORT MORGAN    FAIR      36  18  48 NE6       29.73S
$$

COZ086-089-092>099-200900-
...SOUTHEAST COLORADO...

CITY           SKY/WX    TMP DP  RH WIND       PRES   REMARKS
PUEBLO         FAIR      33  17  51 CALM      29.76F
LA JUNTA       FAIR      49  20  31 SW13      29.73F
LAMAR          FAIR      27  12  53 NW6       29.71F WCI  20
SPRINGFIELD      N/A     38  16  40 W6        29.76S
$$



USA.gov is the U.S. government's official web portal to all federal, state and local government web resources and services.